Stanislav Sima

Olheiro - Zbrojovka Brno
4 Dez 2028
Segunda-feira
Processo

Personalidade

Adaptabilidade (7) Ambição (16) Controvérsia (4) Lealdade (16) Pressão (1) Profissionalismo (1) Espírito Esportivo (19) Temperamento (6)

Perfil

Estilo de Treinamento Democrático
Licença Continental B
Determinação 9
Gestão de Pessoas 8
Motivação 10
Disciplina 6
Satisfação no Trabalho
100%
Fadiga
0%
Função Olheiro
Salário 62.4K p/s
Contrato 14.03.2029

Desempenho

Comportamento Bom
Eficácia do Treinamento
43%
Desenvolvimento do Jogador
15%
Prevenção de Lesões
40%
Implementação Tática
45%

Eventos Recentes

Avaliou um jogador agora
Participou de uma reunião de recrutamento agora
Recomendou um alvo de transferência agora
Recomendou um alvo de transferência agora
Recomendou um alvo de transferência agora
Avaliou um jogador agora
Avaliou um jogador agora
Avaliou um jogador 7d atrás

Monitorando agora

92
Jogador Clube Status Habilidade Confiança Observado Última observação Último voto
Julián Palacios Envigado Ativo 123 / 120 40% 4 03.12.2028 -
Tomás Castro Ponce Atlanta Ativo 112 / 101 40% 3 03.12.2028 -
Maico Quiroz Güemes Ativo 123 / 115 40% 1 03.12.2028 -
Guillermo Rodríguez San Martín Ativo 116 / 122 40% 2 02.12.2028 -
Fallou Fall St. Louis CITY SC Ativo 132 / 120 40% 1 02.12.2028 -
Santiago Fernández Talleres Ativo 114 / 131 40% 6 01.12.2028 -
Luis Palacios Once Caldas Ativo 133 / 108 40% 7 01.12.2028 -
Renzo Orihuela Montevideo City Torque Ativo 126 / 107 40% 2 01.12.2028 -
Philippe Ndinga Philadelphia Union Ativo 127 / 126 40% 2 29.11.2028 -
Ki-Jana Hoever Sparta Prague Ativo 131 / 139 40% 2 29.11.2028 -
Felipe Andrade Houston Dynamo Ativo 131 / 109 40% 1 29.11.2028 -
Jake Davis Sporting Kansas City Ativo 128 / 110 40% 3 27.11.2028 -
Maizon Rodríguez Unión de Santa Fe Ativo 112 / 122 40% 1 27.11.2028 -
Agustín Pereira Albion Ativo 117 / 114 40% 1 27.11.2028 -
Bruno Leyes Godoy Cruz Ativo 133 / 116 40% 7 26.11.2028 -
Tobías Leiva Estudiantes Ativo 124 / 130 40% 3 26.11.2028 -
Alcides Benítez Belgrano Ativo 122 / 106 40% 5 25.11.2028 -
Juan Sebastián Herrera Deportivo La Guaira Ativo 123 / 109 40% 3 25.11.2028 -
Juan Velázquez Belgrano Ativo 119 / 119 40% 2 25.11.2028 -
Jerónimo Porto Lapegüe San Telmo Ativo 119 / 111 40% 1 25.11.2028 -
Vicente Poggi Godoy Cruz Ativo 138 / 137 40% 2 24.11.2028 -
Diego Luna Real Salt Lake Ativo 126 / 145 40% 3 24.11.2028 -
Antony Portland Timbers Ativo 128 / 142 40% 2 24.11.2028 -
Daniel Barrea Godoy Cruz Ativo 128 / 129 40% 2 23.11.2028 -
Nicolás Ferreira Wanderers Ativo 120 / 106 40% 1 23.11.2028 -
Tomás Rojas Atlanta Ativo 105 / 103 40% 4 22.11.2028 -
Yuri Casermeiro Central Córdoba SdE Ativo 128 / 107 40% 2 22.11.2028 -
Gabriel Díaz Patronato Ativo 103 / 104 40% 1 22.11.2028 -
Ezequiel Neira Carabobo Ativo 110 / 118 40% 3 20.11.2028 -
Henrik Heggheim Viking Ativo 132 / 137 40% 2 20.11.2028 -
Tomás Jacob Atlanta United FC Ativo 134 / 123 40% 4 19.11.2028 -
Jimer Fory Portland Timbers Ativo 109 / 133 40% 2 19.11.2028 -
Santiago Kubiszyn Morón Ativo 108 / 121 40% 3 19.11.2028 -
Matías Machado Racing Ativo 118 / 104 40% 3 18.11.2028 -
Lucas Palavecino Banfield Ativo 128 / 104 40% 1 18.11.2028 -
Lautaro Vargas Unión de Santa Fe Ativo 110 / 113 40% 2 17.11.2028 -
Alexis Steimbach Gimnasia La Plata Ativo 136 / 117 40% 1 17.11.2028 -
Alejo Tabares All Boys Ativo 112 / 108 40% 5 16.11.2028 -
Emiliano Álvarez Progreso Ativo 119 / 128 40% 2 16.11.2028 -
Loïc Williams Charlotte Football Club Ativo 130 / 121 40% 2 15.11.2028 -
Nazareno Kihm Ferro Carril Oeste Ativo 115 / 129 40% 2 13.11.2028 -
Federico Bisanz Atlanta Ativo 109 / 112 40% 1 13.11.2028 -
Federico Álvarez Dinamo Tbilisi Ativo 116 / 100 40% 2 11.11.2028 -
Diego Gaitán Maipú Ativo 114 / 115 40% 2 10.11.2028 -
Emiliano Gómez Boston River Ativo 115 / 133 40% 2 10.11.2028 -
Luciano Cosentino Wanderers Ativo 132 / 135 40% 1 10.11.2028 -
Nicolás Dubersarsky Austin FC Ativo 136 / 141 40% 3 09.11.2028 -
Agustín Ojeda Seattle Sounders Ativo 125 / 114 40% 1 08.11.2028 -
Johan Campaña Patriotas Ativo 101 / 113 40% 1 07.11.2028 -
Alex Luna Instituto Ativo 142 / 117 40% 1 07.11.2028 -
Griffin Yow New England Revolution Ativo 128 / 143 40% 1 06.11.2028 -
Mateo Silvetti Seattle Sounders Ativo 142 / 132 40% 1 06.11.2028 -
Abraham Bahachille Carabobo Ativo 109 / 106 40% 1 03.11.2028 -
Stefano Moreyra Independiente Rivadavia Ativo 131 / 113 40% 1 03.11.2028 -
Agustín Colazo Unión de Santa Fe Ativo 121 / 134 40% 1 02.11.2028 -
Esteban Obregón Montevideo City Torque Ativo 130 / 119 40% 1 02.11.2028 -
Telasco Segovia Inter Miami CF Ativo 134 / 123 40% 1 02.11.2028 -
Leonel Pollacchi San Telmo Ativo 129 / 117 40% 1 27.10.2028 -
Agustín Anello Philadelphia Union Ativo 125 / 115 40% 1 27.10.2028 -
Nicolás Fernández Maipú Ativo 102 / 111 40% 2 25.10.2028 -
Lucas Monzón Alvarado Ativo 101 / 118 40% 2 25.10.2028 -
Luis Otávio Orlando City Ativo 119 / 131 40% 3 24.10.2028 -
Sheyko Studer Independiente Rivadavia Ativo 121 / 113 40% 1 24.10.2028 -
Patricio Moyano Defensores Ativo 125 / 112 40% 1 23.10.2028 -
Luis Ángel Díaz Independiente Rivadavia Ativo 133 / 132 40% 1 23.10.2028 -
Hamzat Ojediran Colorado Rapids Ativo 120 / 122 40% 2 21.10.2028 -
Ilay Feingold New England Revolution Ativo 115 / 129 40% 1 21.10.2028 -
Igor Jesus Los Angeles Football Club Ativo 121 / 115 40% 1 20.10.2028 -
Tomás Ferreyra Defensores Unidos Ativo 114 / 126 40% 1 20.10.2028 -
Luca Langoni Columbus Crew Ativo 142 / 147 40% 1 19.10.2028 -
Martín Campos Ferro Carril Oeste Ativo 122 / 113 40% 1 19.10.2028 -
David Da Costa Portland Timbers Ativo 149 / 131 40% 1 19.10.2028 -
Carlos Cantillo Jaguares Ativo 104 / 117 40% 1 18.10.2028 -
Yannick Bright Inter Miami CF Ativo 125 / 108 40% 1 16.10.2028 -
Anzor Mekvabishvili Chicago Fire Ativo 134 / 136 40% 1 15.10.2028 -
Jahkeele Marshall-Rutty New York Red Bulls Ativo 118 / 142 40% 2 12.10.2028 -
Leandro Lucero Temperley Ativo 106 / 123 40% 2 12.10.2028 -
Braian Aranda Agropecuario Argentino Ativo 106 / 132 40% 1 08.10.2028 -
Nicolás Romero Minnesota United FC Ativo 147 / 139 40% 1 08.10.2028 -
Gonzalo Luján Inter Miami CF Ativo 124 / 134 40% 2 07.10.2028 -
Cole Bassett Portland Timbers Ativo 117 / 123 40% 1 07.10.2028 -
Rodrigo Chagas Juventud Ativo 122 / 111 40% 2 06.10.2028 -
Michal Cupák Zlin Perdido 108 / 96 65% 1 24.07.2028 -
Nuno Santos SuperSport United Negociando 126 / 126 66% 1 01.06.2028 -
Elvin Cəfərquliyev Qarabag Negociando 122 / 122 63% 1 01.06.2028 -
Dillon Hoogewerf Radnicki 1923 Negociando 99 / 102 66% 1 01.06.2028 -
Isaac Partey Sol de America Ativo 108 / 109 66% 1 01.01.2028 -
David Boateng Cobresal Ativo 95 / 95 66% 1 01.01.2028 -
Percy Vilakazi Ujpest Ativo 109 / 111 66% 1 01.01.2028 -
Caio Vidal Deportivo Pereira Ativo 128 / 129 63% 1 01.06.2027 Aprovar
Samuel Asamoah Racing Ativo 104 / 110 66% 1 01.06.2027 Aprovar
Jakub Martinec Sparta Prague Ativo 98 / 95 58% 1 01.01.2027 Aprovar